STARLINK-34638

Last updated on Sat Jul 19 2025 00:02:08 GMT+0000 (Coordinated Universal Time)

1 64762U 25147H 25199.58335648 -.01503062 00000+0 -10247-1 0 9995 2 64762 53.1573 256.8651 0000893 84.3961 325.1751 15.77135315 2818
UTC large
Height (km)
Speed (km/s)
/
Latitude / Longitude
Inclination (degrees)
Orbital Period (minutes)
Azimuth
Elevation
Range (km)
Doppler Factor

Next 0 passes for location: London (51.5072 / 0.1276)

Sorry there are no passes over London.